Coronas F rocket - Orbit

View from above orbital plane
View from above orbital plane
View from above satellite
View from above satellite

Ground track
Ground track

The orbit data is extracted from the following two-line orbital elements,

1 26874U 01032B   13143.81334943  .00007453  00000-0  15863-3 0  3843
2 26874 082.4775 028.3904 0019372 035.2573 324.9952 15.44546977661071
Epoch (UTC): 23 May 2013 19:31:13
Eccentricity: 0.0019372
inclination: 82.4775°
perigee height: 419 km
apogee height: 446 km
right ascension of ascending node: 28.3904°
argument of perigee: 35.2573°
revolutions per day: 15.44546977
mean anomaly at epoch: 324.9952°
orbit number at epoch: 66107

The dashed part of the orbit path shows where the satellite is in the earth's shadow,  

Developed and maintained by Chris Peat, Heavens-Above GmbH. Please read the updated FAQ before sending e-mail. Imprint. DLR